| time (UTC) | temp F | wind direction | speed MPH | gust MPH | rain 1hr in | rain 24hr in | rain mn in | humidity % | barometer mb |
| 20260508035404 | 56 | 0 | 0.0 | 0.0 | 0.00 | 0.52 | 0.52 | 92 | 1013.6 |
| 20260508034525 | 55 | 0 | 0.0 | 0.0 | 0.00 | 0.52 | 0.52 | 92 | 1013.5 |
| 20260508033604 | 55 | 0 | 0.0 | 0.0 | 0.00 | 0.52 | 0.52 | 92 | 1013.2 |
| 20260508032704 | 56 | 0 | 0.0 | 0.0 | 0.00 | 0.53 | 0.52 | 91 | 1013.0 |
| 20260508031804 | 55 | 0 | 0.0 | 0.0 | 0.00 | 0.53 | 0.52 | 91 | 1013.1 |
| 20260508030903 | 56 | 0 | 0.0 | 0.0 | 0.00 | 0.53 | 0.52 | 91 | 1013.1 |
| 20260508030025 | 56 | 0 | 0.0 | 0.0 | 0.00 | 0.53 | 0.52 | 90 | 1013.0 |
| 20260508025403 | 56 | 0 | 0.0 | 0.0 | 0.00 | 0.53 | 0.52 | 90 | 1012.9 |
| 20260508024504 | 56 | 0 | 0.0 | 0.0 | 0.00 | 0.54 | 0.52 | 90 | 1012.9 |
| 20260508023603 | 56 | 0 | 0.0 | 0.0 | 0.00 | 0.54 | 0.52 | 90 | 1012.8 |
| 20260508022725 | 56 | 0 | 0.0 | 0.0 | 0.00 | 0.54 | 0.52 | 90 | 1012.8 |
| 20260508021803 | 56 | 0 | 0.0 | 0.0 | 0.00 | 0.54 | 0.52 | 90 | 1012.6 |
| 20260508020904 | 56 | 0 | 0.0 | 0.0 | 0.00 | 0.54 | 0.52 | 90 | 1012.6 |
| 20260508020004 | 56 | 0 | 0.0 | 0.0 | 0.00 | 0.54 | 0.52 | 90 | 1012.4 |
| 20260508015403 | 56 | 0 | 0.0 | 0.0 | 0.00 | 0.54 | 0.52 | 90 | 1012.4 |
| 20260508014524 | 56 | 0 | 0.0 | 0.0 | 0.00 | 0.54 | 0.52 | 90 | 1012.4 |
| 20260508013603 | 56 | 0 | 0.0 | 0.0 | 0.00 | 0.54 | 0.52 | 90 | 1012.1 |
| 20260508012703 | 56 | 0 | 0.0 | 0.0 | 0.00 | 0.54 | 0.52 | 90 | 1011.6 |
| 20260508011803 | 56 | 0 | 0.0 | 0.0 | 0.00 | 0.54 | 0.52 | 89 | 1011.5 |
| 20260508010924 | 56 | 0 | 0.0 | 0.0 | 0.00 | 0.54 | 0.52 | 89 | 1011.5 |
| 20260508010004 | 56 | 0 | 0.0 | 0.0 | 0.00 | 0.54 | 0.52 | 89 | 1011.7 |
| 20260508005403 | 56 | 0 | 0.0 | 0.0 | 0.00 | 0.54 | 0.52 | 89 | 1011.9 |
| 20260508004503 | 56 | 0 | 0.0 | 0.0 | 0.00 | 0.54 | 0.52 | 89 | 1011.8 |
| 20260508003603 | 56 | 0 | 0.0 | 4.0 | 0.00 | 0.54 | 0.52 | 89 | 1011.3 |
| 20260508002703 | 56 | 0 | 0.0 | 4.0 | 0.00 | 0.54 | 0.52 | 89 | 1011.2 |
| 20260508001803 | 56 | 0 | 0.0 | 2.0 | 0.00 | 0.54 | 0.52 | 89 | 1011.2 |
| 20260508000924 | 56 | 0 | 0.0 | 2.0 | 0.00 | 0.54 | 0.52 | 89 | 1011.3 |
| 20260508000003 | 56 | 0 | 0.0 | 2.0 | 0.00 | 0.54 | 0.52 | 89 | 1011.1 |
| 20260507235424 | 56 | 0 | 0.0 | 4.0 | 0.00 | 0.54 | 0.52 | 89 | 1011.0 |
| 20260507234503 | 56 | 0 | 0.0 | 4.0 | 0.00 | 0.54 | 0.52 | 89 | 1010.7 |
| 20260507233603 | 56 | 0 | 0.0 | 2.0 | 0.00 | 0.54 | 0.52 | 89 | 1010.6 |
| 20260507232703 | 57 | 0 | 0.0 | 8.0 | 0.00 | 0.54 | 0.52 | 89 | 1010.5 |
| 20260507231803 | 57 | 0 | 0.0 | 2.0 | 0.00 | 0.54 | 0.52 | 89 | 1010.3 |
| 20260507230903 | 57 | 0 | 0.0 | 6.0 | 0.00 | 0.54 | 0.52 | 89 | 1010.2 |
| 20260507230024 | 57 | 0 | 0.0 | 6.0 | 0.00 | 0.54 | 0.52 | 88 | 1010.2 |
| 20260507225403 | 57 | 0 | 0.0 | 4.0 | 0.00 | 0.54 | 0.52 | 89 | 1010.2 |
| 20260507224504 | 57 | 67 | 3.0 | 6.0 | 0.00 | 0.54 | 0.52 | 88 | 1010.0 |
| 20260507223603 | 57 | 0 | 0.0 | 6.0 | 0.00 | 0.54 | 0.52 | 89 | 1010.0 |
| 20260507222703 | 57 | 62 | 3.0 | 10.0 | 0.00 | 0.54 | 0.52 | 88 | 1010.0 |
| 20260507221803 | 57 | 0 | 0.0 | 6.0 | 0.00 | 0.54 | 0.52 | 89 | 1009.8 |
| 20260507220904 | 57 | 0 | 0.0 | 8.0 | 0.00 | 0.54 | 0.52 | 90 | 1009.9 |
| 20260507220004 | 57 | 0 | 0.0 | 4.0 | 0.00 | 0.54 | 0.52 | 90 | 1010.1 |
| 20260507215424 | 57 | 0 | 0.0 | 4.0 | 0.00 | 0.54 | 0.52 | 90 | 1010.4 |
| 20260507214503 | 57 | 0 | 0.0 | 4.0 | 0.00 | 0.54 | 0.52 | 90 | 1010.2 |
| 20260507213603 | 56 | 66 | 3.0 | 8.0 | 0.00 | 0.54 | 0.52 | 90 | 1010.0 |
| 20260507212703 | 56 | 0 | 0.0 | 4.0 | 0.00 | 0.54 | 0.52 | 90 | 1010.0 |
| 20260507211803 | 57 | 0 | 0.0 | 8.0 | 0.00 | 0.54 | 0.52 | 90 | 1009.9 |
| 20260507210903 | 57 | 63 | 3.0 | 10.0 | 0.00 | 0.54 | 0.52 | 90 | 1009.8 |
| 20260507210024 | 56 | 67 | 3.0 | 12.0 | 0.00 | 0.54 | 0.52 | 90 | 1009.8 |
| 20260507205403 | 57 | 72 | 3.0 | 10.0 | 0.00 | 0.54 | 0.52 | 90 | 1009.6 |
| 20260507204504 | 57 | 68 | 3.0 | 10.0 | 0.00 | 0.54 | 0.52 | 90 | 1009.5 |
| 20260507203603 | 57 | 60 | 3.0 | 16.0 | 0.00 | 0.54 | 0.52 | 90 | 1009.5 |
| 20260507202703 | 58 | 90 | 3.0 | 16.0 | 0.00 | 0.54 | 0.52 | 90 | 1009.3 |
| 20260507201803 | 58 | 0 | 0.0 | 8.0 | 0.00 | 0.54 | 0.52 | 90 | 1009.4 |
| 20260507200903 | 58 | 67 | 3.0 | 12.0 | 0.00 | 0.54 | 0.52 | 91 | 1009.3 |
| 20260507200003 | 58 | 0 | 0.0 | 6.0 | 0.00 | 0.54 | 0.52 | 92 | 1009.4 |
| 20260507195424 | 58 | 84 | 3.0 | 10.0 | 0.00 | 0.54 | 0.52 | 92 | 1009.4 |
| 20260507194503 | 58 | 0 | 0.0 | 6.0 | 0.00 | 0.54 | 0.52 | 92 | 1009.3 |
| 20260507193603 | 58 | 0 | 0.0 | 6.0 | 0.00 | 0.54 | 0.52 | 92 | 1009.1 |
| 20260507192703 | 58 | 0 | 0.0 | 6.0 | 0.00 | 0.54 | 0.52 | 92 | 1009.3 |
| 20260507191803 | 58 | 63 | 3.0 | 12.0 | 0.01 | 0.54 | 0.52 | 92 | 1009.3 |
| 20260507190903 | 58 | 81 | 3.0 | 8.0 | 0.02 | 0.57 | 0.52 | 92 | 1009.6 |
| 20260507190004 | 58 | 67 | 3.0 | 12.0 | 0.02 | 0.62 | 0.52 | 92 | 1009.6 |
| 20260507185403 | 58 | 74 | 3.0 | 10.0 | 0.02 | 0.62 | 0.52 | 92 | 1009.5 |
| 20260507184504 | 58 | 61 | 3.0 | 10.0 | 0.02 | 0.64 | 0.52 | 92 | 1008.9 |
| 20260507183603 | 58 | 61 | 3.0 | 12.0 | 0.03 | 0.70 | 0.52 | 93 | 1008.7 |
| 20260507182703 | 59 | 68 | 3.0 | 12.0 | 0.04 | 0.75 | 0.52 | 92 | 1009.5 |
| 20260507181803 | 59 | 0 | 0.0 | 6.0 | 0.03 | 0.74 | 0.51 | 92 | 1009.3 |
| 20260507180924 | 59 | 0 | 0.0 | 8.0 | 0.02 | 0.73 | 0.51 | 92 | 1008.9 |
| 20260507180003 | 60 | 66 | 3.0 | 12.0 | 0.02 | 0.73 | 0.50 | 92 | 1008.8 |
| 20260507175424 | 60 | 0 | 0.0 | 6.0 | 0.02 | 0.73 | 0.50 | 92 | 1008.8 |
| 20260507174524 | 60 | 79 | 3.0 | 6.0 | 0.02 | 0.73 | 0.50 | 91 | 1009.0 |
| 20260507173603 | 62 | 0 | 0.0 | 4.0 | 0.01 | 0.72 | 0.48 | 89 | 1009.8 |
| 20260507172703 | 64 | 73 | 3.0 | 10.0 | 0.00 | 0.70 | 0.47 | 87 | 1009.1 |
| 20260507171803 | 68 | 0 | 0.0 | 10.0 | 0.01 | 0.70 | 0.47 | 89 | 1008.1 |
| 20260507170903 | 69 | 0 | 0.0 | 0.0 | 0.02 | 0.70 | 0.47 | 93 | 1008.1 |
| 20260507170003 | 69 | 0 | 0.0 | 4.0 | 0.03 | 0.70 | 0.47 | 92 | 1007.7 |
| 20260507165424 | 69 | 0 | 0.0 | 4.0 | 0.04 | 0.70 | 0.47 | 92 | 1008.0 |
| 20260507164503 | 70 | 0 | 0.0 | 0.0 | 0.04 | 0.70 | 0.47 | 94 | 1008.0 |
| 20260507163603 | 69 | 0 | 0.0 | 0.0 | 0.04 | 0.70 | 0.47 | 94 | 1008.0 |
| 20260507162703 | 69 | 0 | 0.0 | 0.0 | 0.04 | 0.70 | 0.47 | 94 | 1008.6 |
| 20260507161803 | 69 | 0 | 0.0 | 0.0 | 0.03 | 0.69 | 0.46 | 94 | 1009.2 |
| 20260507160903 | 69 | 0 | 0.0 | 0.0 | 0.03 | 0.68 | 0.45 | 95 | 1009.4 |
| 20260507160024 | 69 | 0 | 0.0 | 0.0 | 0.02 | 0.67 | 0.44 | 95 | 1009.5 |
| 20260507155403 | 69 | 0 | 0.0 | 0.0 | 0.01 | 0.66 | 0.43 | 95 | 1009.5 |
| 20260507154524 | 69 | 0 | 0.0 | 0.0 | 0.02 | 0.66 | 0.43 | 95 | 1009.5 |
| 20260507153603 | 69 | 0 | 0.0 | 2.0 | 0.02 | 0.66 | 0.43 | 95 | 1009.3 |
| 20260507152703 | 69 | 0 | 0.0 | 2.0 | 0.03 | 0.66 | 0.43 | 95 | 1008.8 |
| 20260507151803 | 69 | 0 | 0.0 | 2.0 | 0.04 | 0.66 | 0.43 | 95 | 1009.1 |
| 20260507150924 | 69 | 0 | 0.0 | 2.0 | 0.06 | 0.65 | 0.42 | 96 | 1009.2 |
| 20260507150003 | 68 | 0 | 0.0 | 2.0 | 0.06 | 0.65 | 0.42 | 96 | 1009.3 |
| 20260507145403 | 68 | 0 | 0.0 | 2.0 | 0.06 | 0.65 | 0.42 | 95 | 1009.2 |
| 20260507144503 | 68 | 0 | 0.0 | 6.0 | 0.06 | 0.64 | 0.41 | 95 | 1009.4 |
| 20260507143603 | 68 | 0 | 0.0 | 0.0 | 0.06 | 0.64 | 0.41 | 95 | 1009.5 |
| 20260507142724 | 68 | 0 | 0.0 | 0.0 | 0.06 | 0.63 | 0.40 | 95 | 1009.5 |
| 20260507141805 | 68 | 0 | 0.0 | 0.0 | 0.06 | 0.62 | 0.39 | 95 | 1009.4 |
| 20260507140905 | 68 | 0 | 0.0 | 0.0 | 0.04 | 0.59 | 0.36 | 95 | 1009.3 |
| 20260507140006 | 68 | 0 | 0.0 | 0.0 | 0.06 | 0.59 | 0.36 | 96 | 1009.4 |
| 20260507135405 | 68 | 0 | 0.0 | 0.0 | 0.06 | 0.59 | 0.36 | 96 | 1009.5 |
| 20260507134505 | 68 | 0 | 0.0 | 0.0 | 0.04 | 0.58 | 0.35 | 96 | 1009.8 |
| 20260507133626 | 67 | 0 | 0.0 | 0.0 | 0.04 | 0.58 | 0.35 | 96 | 1010.0 |
| 20260507132705 | 67 | 0 | 0.0 | 0.0 | 0.03 | 0.57 | 0.34 | 95 | 1009.9 |
| 20260507131805 | 67 | 0 | 0.0 | 0.0 | 0.02 | 0.56 | 0.33 | 96 | 1010.0 |
| 20260507130005 | 67 | 0 | 0.0 | 0.0 | 0.00 | 0.54 | 0.31 | 96 | 1009.9 |
| 20260507125405 | 67 | 0 | 0.0 | 0.0 | 0.00 | 0.54 | 0.31 | 96 | 1009.9 |
| 20260507124505 | 67 | 0 | 0.0 | 0.0 | 0.00 | 0.54 | 0.31 | 96 | 1009.9 |
| 20260507123605 | 67 | 0 | 0.0 | 0.0 | 0.00 | 0.54 | 0.31 | 96 | 1009.9 |
| 20260507122706 | 67 | 0 | 0.0 | 0.0 | 0.00 | 0.54 | 0.31 | 96 | 1009.9 |
| 20260507121826 | 66 | 0 | 0.0 | 0.0 | 0.00 | 0.54 | 0.31 | 96 | 1009.8 |
| 20260507120905 | 66 | 0 | 0.0 | 0.0 | 0.00 | 0.54 | 0.31 | 96 | 1009.7 |
| 20260507120005 | 66 | 0 | 0.0 | 0.0 | 0.00 | 0.54 | 0.31 | 95 | 1010.0 |
| 20260507115405 | 66 | 0 | 0.0 | 0.0 | 0.00 | 0.54 | 0.31 | 96 | 1010.1 |
| 20260507114505 | 66 | 0 | 0.0 | 2.0 | 0.00 | 0.54 | 0.31 | 95 | 1009.9 |
| 20260507113605 | 66 | 0 | 0.0 | 2.0 | 0.00 | 0.54 | 0.31 | 95 | 1010.3 |
| 20260507112705 | 66 | 0 | 0.0 | 2.0 | 0.00 | 0.54 | 0.31 | 95 | 1010.2 |
| 20260507111805 | 66 | 0 | 0.0 | 0.0 | 0.01 | 0.54 | 0.31 | 95 | 1010.3 |
| 20260507110905 | 66 | 0 | 0.0 | 0.0 | 0.01 | 0.54 | 0.31 | 95 | 1010.2 |
| 20260507110005 | 66 | 0 | 0.0 | 0.0 | 0.01 | 0.54 | 0.31 | 95 | 1010.3 |
| 20260507105405 | 66 | 0 | 0.0 | 0.0 | 0.01 | 0.54 | 0.31 | 95 | 1010.3 |
| 20260507104505 | 66 | 0 | 0.0 | 4.0 | 0.01 | 0.54 | 0.31 | 95 | 1009.8 |
| 20260507103605 | 65 | 0 | 0.0 | 4.0 | 0.02 | 0.54 | 0.31 | 95 | 1009.7 |
| 20260507102705 | 65 | 0 | 0.0 | 0.0 | 0.02 | 0.54 | 0.31 | 95 | 1010.0 |
| 20260507101805 | 65 | 0 | 0.0 | 2.0 | 0.01 | 0.53 | 0.30 | 95 | 1009.8 |
| 20260507100905 | 65 | 0 | 0.0 | 2.0 | 0.01 | 0.53 | 0.30 | 95 | 1009.8 |
| 20260507100005 | 65 | 0 | 0.0 | 0.0 | 0.01 | 0.53 | 0.30 | 95 | 1009.9 |
| 20260507095405 | 65 | 0 | 0.0 | 0.0 | 0.02 | 0.53 | 0.30 | 95 | 1009.9 |
| 20260507094526 | 65 | 0 | 0.0 | 2.0 | 0.02 | 0.53 | 0.30 | 95 | 1009.8 |
| 20260507093605 | 65 | 0 | 0.0 | 2.0 | 0.01 | 0.52 | 0.29 | 95 | 1009.9 |
| 20260507092705 | 65 | 0 | 0.0 | 0.0 | 0.01 | 0.52 | 0.29 | 95 | 1010.1 |
| 20260507091805 | 64 | 0 | 0.0 | 0.0 | 0.01 | 0.52 | 0.29 | 95 | 1009.8 |
| 20260507090905 | 65 | 0 | 0.0 | 0.0 | 0.01 | 0.52 | 0.29 | 95 | 1009.9 |
| 20260507090006 | 65 | 0 | 0.0 | 0.0 | 0.01 | 0.52 | 0.29 | 95 | 1010.0 |
| 20260507085426 | 65 | 0 | 0.0 | 0.0 | 0.01 | 0.51 | 0.28 | 95 | 1010.0 |
| 20260507084505 | 65 | 0 | 0.0 | 2.0 | 0.01 | 0.51 | 0.28 | 94 | 1009.9 |
| 20260507083605 | 65 | 0 | 0.0 | 0.0 | 0.03 | 0.51 | 0.28 | 94 | 1010.2 |
| 20260507082705 | 65 | 0 | 0.0 | 0.0 | 0.04 | 0.51 | 0.28 | 94 | 1010.4 |
| 20260507081805 | 65 | 0 | 0.0 | 0.0 | 0.06 | 0.51 | 0.28 | 94 | 1010.8 |
| 20260507080905 | 65 | 0 | 0.0 | 0.0 | 0.06 | 0.51 | 0.28 | 94 | 1010.9 |
| 20260507080005 | 65 | 0 | 0.0 | 0.0 | 0.06 | 0.51 | 0.28 | 94 | 1010.7 |
| 20260507075405 | 65 | 0 | 0.0 | 0.0 | 0.04 | 0.50 | 0.26 | 94 | 1010.3 |
| 20260507074504 | 65 | 0 | 0.0 | 0.0 | 0.04 | 0.50 | 0.26 | 94 | 1010.2 |
| 20260507073605 | 65 | 0 | 0.0 | 0.0 | 0.02 | 0.47 | 0.24 | 94 | 1010.6 |
| 20260507072705 | 65 | 0 | 0.0 | 0.0 | 0.01 | 0.46 | 0.23 | 94 | 1011.2 |
| 20260507071805 | 65 | 0 | 0.0 | 0.0 | 0.00 | 0.45 | 0.22 | 94 | 1011.2 |
| 20260507070925 | 65 | 0 | 0.0 | 0.0 | 0.00 | 0.45 | 0.22 | 94 | 1011.1 |
| 20260507070009 | 65 | 0 | 0.0 | 0.0 | 0.00 | 0.45 | 0.22 | 94 | 1011.5 |
| 20260507065404 | 65 | 0 | 0.0 | 0.0 | 0.00 | 0.45 | 0.22 | 94 | 1010.7 |
| 20260507064505 | 65 | 0 | 0.0 | 0.0 | 0.00 | 0.45 | 0.22 | 94 | 1011.4 |
| 20260507063604 | 65 | 0 | 0.0 | 0.0 | 0.00 | 0.45 | 0.22 | 94 | 1011.4 |
| 20260507062704 | 65 | 0 | 0.0 | 0.0 | 0.00 | 0.45 | 0.22 | 94 | 1011.6 |
| 20260507061805 | 65 | 0 | 0.0 | 0.0 | 0.00 | 0.45 | 0.22 | 93 | 1011.8 |
| 20260507060905 | 65 | 0 | 0.0 | 0.0 | 0.00 | 0.45 | 0.22 | 93 | 1011.6 |
| 20260507060005 | 66 | 0 | 0.0 | 0.0 | 0.02 | 0.45 | 0.22 | 93 | 1011.8 |
| 20260507055405 | 66 | 0 | 0.0 | 0.0 | 0.07 | 0.45 | 0.22 | 93 | 1011.9 |
| 20260507054504 | 66 | 0 | 0.0 | 0.0 | 0.10 | 0.45 | 0.22 | 93 | 1012.2 |
| 20260507053604 | 66 | 0 | 0.0 | 0.0 | 0.13 | 0.45 | 0.22 | 93 | 1012.1 |
| 20260507052705 | 66 | 0 | 0.0 | 0.0 | 0.14 | 0.45 | 0.22 | 93 | 1011.3 |
| 20260507051804 | 66 | 0 | 0.0 | 0.0 | 0.19 | 0.45 | 0.22 | 92 | 1010.8 |
| 20260507050904 | 66 | 0 | 0.0 | 2.0 | 0.22 | 0.45 | 0.22 | 92 | 1011.0 |
| 20260507050006 | 66 | 0 | 0.0 | 4.0 | 0.20 | 0.43 | 0.20 | 92 | 1011.8 |
| 20260507045404 | 67 | 0 | 0.0 | 2.0 | 0.15 | 0.39 | 0.15 | 91 | 1012.5 |
| 20260507044505 | 67 | 0 | 0.0 | 0.0 | 0.12 | 0.35 | 0.12 | 91 | 1012.8 |
| 20260507043625 | 67 | 0 | 0.0 | 4.0 | 0.09 | 0.32 | 0.09 | 90 | 1013.4 |
| 20260507042726 | 68 | 0 | 0.0 | 4.0 | 0.09 | 0.31 | 0.08 | 90 | 1013.4 |
| 20260507041804 | 68 | 0 | 0.0 | 4.0 | 0.04 | 0.26 | 0.03 | 88 | 1013.7 |
| 20260507040905 | 68 | 0 | 0.0 | 2.0 | 0.01 | 0.23 | 0.00 | 88 | 1013.3 |
| 20260507040005 | 68 | 0 | 0.0 | 4.0 | 0.01 | 0.23 | 0.00 | 88 | 1013.2 |